This is the latest recevied weather packets stored in our database for station/object IT9CNT. If no packets are shown the sender has not sent any weather packets the latest 1 day(s).
| Time | Temp. | Humidity | Pressure | Rain* | Wind** | Luminosity | Snow |
|---|---|---|---|---|---|---|---|
| 1778043363 | 15.56° C | 74% | 1011.7 hPa | 0 mm | 3.13 m/s, 95° | - | - |
| 1778043303 | 15.56° C | 74% | 1011.8 hPa | 0 mm | 3.13 m/s, 91° | - | - |
| 1778043243 | 15.56° C | 74% | 1012 hPa | 0 mm | 2.68 m/s, 90° | - | - |
| 1778043183 | 15.56° C | 74% | 1011.7 hPa | 0 mm | 2.68 m/s, 91° | - | - |
| 1778043123 | 15.56° C | 74% | 1012 hPa | 0 mm | 2.68 m/s, 94° | - | - |
| 1778043063 | 15.56° C | 74% | 1011.7 hPa | 0 mm | 2.68 m/s, 90° | - | - |
| 1778043003 | 15.56° C | 74% | 1011.8 hPa | 0 mm | 2.68 m/s, 89° | - | - |
| 1778042943 | 15.56° C | 74% | 1011.8 hPa | 0 mm | 2.68 m/s, 80° | - | - |
| 1778042884 | 15.56° C | 74% | 1011.9 hPa | 0 mm | 2.68 m/s, 78° | - | - |
| 1778042824 | 15.56° C | 74% | 1011.8 hPa | 0 mm | 2.24 m/s, 75° | - | - |
| 1778042763 | 15.56° C | 74% | 1011.9 hPa | 0 mm | 2.68 m/s, 77° | - | - |
| 1778042703 | 15.56° C | 74% | 1011.8 hPa | 0 mm | 2.24 m/s, 74° | - | - |
| 1778042643 | 15.56° C | 74% | 1011.7 hPa | 0 mm | 2.68 m/s, 68° | - | - |
| 1778042583 | 15.56° C | 74% | 1011.8 hPa | 0 mm | 2.68 m/s, 65° | - | - |
| 1778042523 | 15.56° C | 74% | 1011.7 hPa | 0 mm | 2.68 m/s, 66° | - | - |
| 1778042463 | 15.56° C | 74% | 1011.7 hPa | 0 mm | 2.68 m/s, 69° | - | - |
| 1778042403 | 15.56° C | 74% | 1011.8 hPa | 0 mm | 2.68 m/s, 69° | - | - |
| 1778042283 | 15.56° C | 74% | 1011.8 hPa | 0 mm | 2.68 m/s, 84° | - | - |
| 1778042223 | 15.56° C | 74% | 1011.9 hPa | 0 mm | 2.68 m/s, 88° | - | - |
| 1778042163 | 15.56° C | 74% | 1011.6 hPa | 0 mm | 2.68 m/s, 85° | - | - |
| 1778042103 | 15.56° C | 74% | 1011.7 hPa | 0 mm | 2.68 m/s, 89° | - | - |
| 1778042044 | 15.56° C | 74% | 1011.5 hPa | 0 mm | 2.68 m/s, 91° | - | - |
| 1778041983 | 15.56° C | 74% | 1011.7 hPa | 0 mm | 2.68 m/s, 93° | - | - |
| 1778041923 | 15.56° C | 75% | 1011.8 hPa | 0 mm | 2.68 m/s, 90° | - | - |
| 1778041863 | 15.56° C | 75% | 1011.7 hPa | 0 mm | 2.68 m/s, 89° | - | - |
* Rain latest hour (hover to see other rain measurements)
** Current wind speed in m/s (hover to see current wind gust speed)